Home   Weather   Baton Rouge   Past weeks

Flag for USA Past Weather in Baton Rouge, Louisiana, USA — Yesterday and Last 2 Weeks

Now
73 °F

More clouds than sun.


Feels Like: 72 °F
Forecast: 72 / 84 °F
Wind: 10 mph from South

Location: Baton Rouge Metropolitan - Ryan Field

Current Time: Feb 28, 2017 at 8:41:08 am

Latest Report: Feb 28, 2017 at 7:53 am


Visibility: 7 mi

Pressure: 30.11 "Hg

Humidity: 84%

Dew Point: 68 °F

Location of Baton RougeLocation

Past Weather in Baton Rouge — Graph

°F

Baton Rouge Temperature Yesterday

Maximum temperature yesterday: 80 °F (at 2:53 pm)
Minimum temperature yesterday: 62 °F (at 1:00 am)
Average temperature yesterday: 71 °F

High & Low Weather Summary for the Past Weeks

 TemperatureHumidityPressure
High82 °F (Feb 20, 1:53 pm)100% (Feb 18, 7:53 am)30.22 "Hg (Feb 18, 7:53 am)
Low37 °F (Feb 16, 5:53 am)16% (Feb 25, 3:53 pm)29.73 "Hg (Feb 14, 5:15 pm)
Average63 °F75%29.97 "Hg
* Reported Feb 13 6:53 am — Feb 28 6:53 am, Baton Rouge, Weather by CustomWeather, © 2017

Note: Actual official high and low records may vary slightly from our data, if they occured in-between our weather recording intervals... More about our weather records

Advertising

Baton Rouge Weather History for the Previous 24 Hours

Scroll right to see more
 ConditionsComfort  
Time TempWeatherWind HumidityBarometerVisibility
6:53 am
Tue, Feb 28
72 °FMore clouds than sun.10 mph87%30.09 "Hg7 mi
6:17 am72 °FMostly cloudy.8 mph87%30.09 "Hg8 mi
5:53 am71 °FMostly cloudy.7 mph90%30.09 "Hg8 mi
4:53 am72 °FPassing clouds.9 mph87%30.07 "Hg8 mi
3:53 am72 °FPassing clouds.12 mph87%30.06 "Hg8 mi
3:31 am71 °FPartly cloudy.9 mph90%30.07 "Hg8 mi
3:21 am72 °FPassing clouds.9 mph87%30.07 "Hg9 mi
3:05 am72 °FPassing clouds.10 mph87%30.07 "Hg9 mi
2:28 am72 °FPartly cloudy.9 mph87%30.07 "Hg10 mi
1:53 am72 °FPartly cloudy.13 mph87%30.07 "Hg10 mi
12:53 am73 °FMostly cloudy.15 mph84%30.09 "Hg10 mi
12:20 am73 °FPartly cloudy.13 mph84%30.08 "Hg10 mi
11:53 pm
Mon, Feb 27
72 °FPartly cloudy.15 mph87%30.08 "Hg10 mi
10:53 pm73 °FPassing clouds.12 mph84%30.08 "Hg10 mi
9:53 pm74 °FMostly cloudy.14 mph82%30.09 "Hg10 mi
8:53 pm74 °FMostly cloudy.10 mph82%30.09 "Hg10 mi
7:53 pm75 °FMostly cloudy.12 mph79%30.08 "Hg10 mi
6:53 pm75 °FLight rain. Mostly cloudy.12 mph76%30.06 "Hg10 mi
5:53 pm77 °FOvercast.12 mph71%30.05 "Hg10 mi
4:53 pm79 °FScattered clouds.14 mph62%30.03 "Hg10 mi
3:53 pm80 °FBroken clouds.14 mph62%30.03 "Hg10 mi
2:53 pm80 °FBroken clouds.12 mph67%30.03 "Hg10 mi
1:53 pm79 °FBroken clouds.21 mph67%30.04 "Hg10 mi
12:53 pm76 °FLight rain. Mostly cloudy.7 mph82%30.07 "Hg10 mi
11:53 am78 °FMostly cloudy.9 mph71%30.09 "Hg10 mi
10:53 am77 °FMostly cloudy.17 mph74%30.11 "Hg10 mi
9:53 am75 °FMostly cloudy.7 mph85%30.10 "Hg5 mi
8:53 am69 °FHeavy rain. Fog.No wind93%30.09 "Hg5 mi
Weather by CustomWeather, © 2017

See weather overviewHow to use our weather pages